When you browse on this site, cookies collect data to enhance your experience and personalize the content and advertising you see.
Visit our Privacy Policy to learn more. By continuing to use the site, you agree to this use of cookies and data.
  • In Schweiz
  • Länderverzeichnis
  • Für 7 Tage
  • Wassertemperatur
  • Wetterkarte
  • Widgets
  • user-avatar
    Anmelden

    Stündliche Wetter Plakho-Petrivka

    Heute, 25 August, Sonntag

    Zeit Temperatur Niederschläge Wind Luftdruck Luftfeuchtigkeit
    00:00 +21°C° 0 mm 3 m/S 754 mmHg 76%
    01:00 +20°C° 0 mm 3 m/S 754 mmHg 78%
    02:00 +20°C° 0 mm 4 m/S 754 mmHg 79%
    03:00 +19°C° 0 mm 4 m/S 754 mmHg 80%
    04:00 +19°C° 0 mm 3 m/S 754 mmHg 80%
    05:00 +18°C° 0 mm 3 m/S 754 mmHg 80%
    06:00 +18°C° 0 mm 3 m/S 754 mmHg 80%
    07:00 +19°C° 0 mm 3 m/S 754 mmHg 72%
    08:00 +21°C° 0 mm 4 m/S 754 mmHg 63%
    09:00 +23°C° 0 mm 4 m/S 755 mmHg 55%
    10:00 +25°C° 0 mm 4 m/S 754 mmHg 50%
    11:00 +26°C° 0 mm 4 m/S 754 mmHg 46%
    12:00 +28°C° 0 mm 4 m/S 754 mmHg 41%
    13:00 +28°C° 0 mm 5 m/S 754 mmHg 38%
    14:00 +28°C° 0 mm 5 m/S 754 mmHg 35%
    15:00 +29°C° 0 mm 5 m/S 754 mmHg 33%
    16:00 +28°C° 0 mm 5 m/S 754 mmHg 36%
    17:00 +27°C° 0 mm 4 m/S 754 mmHg 40%
    18:00 +26°C° 0 mm 3 m/S 754 mmHg 43%
    19:00 +25°C° 0 mm 3 m/S 754 mmHg 48%
    20:00 +22°C° 0 mm 3 m/S 755 mmHg 53%
    21:00 +20°C° 0 mm 3 m/S 755 mmHg 58%
    22:00 +20°C° 0 mm 3 m/S 755 mmHg 63%
    23:00 +19°C° 0 mm 4 m/S 755 mmHg 67%

    Morgen, 26 August, Montag

    Zeit Temperatur Niederschläge Wind Luftdruck Luftfeuchtigkeit
    00:00 +19°C° 0 mm 4 m/S 755 mmHg 71%
    01:00 +18°C° 0 mm 4 m/S 756 mmHg 70%
    02:00 +18°C° 0 mm 4 m/S 756 mmHg 69%
    03:00 +17°C° 0 mm 4 m/S 756 mmHg 68%
    04:00 +17°C° 0 mm 4 m/S 756 mmHg 70%
    05:00 +15°C° 0 mm 4 m/S 756 mmHg 72%
    06:00 +15°C° 0 mm 4 m/S 756 mmHg 74%
    07:00 +17°C° 0 mm 4 m/S 756 mmHg 69%
    08:00 +19°C° 0 mm 4 m/S 757 mmHg 64%
    09:00 +21°C° 0 mm 5 m/S 757 mmHg 59%
    10:00 +22°C° 0 mm 5 m/S 757 mmHg 54%
    11:00 +23°C° 0 mm 5 m/S 757 mmHg 48%
    12:00 +25°C° 0 mm 5 m/S 757 mmHg 43%
    13:00 +26°C° 0 mm 4 m/S 756 mmHg 41%
    14:00 +26°C° 0 mm 4 m/S 756 mmHg 38%
    15:00 +27°C° 0 mm 4 m/S 756 mmHg 36%
    16:00 +26°C° 0 mm 4 m/S 756 mmHg 38%
    17:00 +26°C° 0 mm 3 m/S 756 mmHg 41%
    18:00 +25°C° 0 mm 3 m/S 755 mmHg 43%
    19:00 +22°C° 0 mm 3 m/S 755 mmHg 47%
    20:00 +20°C° 0 mm 3 m/S 756 mmHg 51%
    21:00 +18°C° 0 mm 2 m/S 756 mmHg 55%
    22:00 +18°C° 0 mm 2 m/S 756 mmHg 58%
    23:00 +17°C° 0 mm 2 m/S 755 mmHg 60%

    übermorgen, 27 August, Dienstag

    Zeit Temperatur Niederschläge Wind Luftdruck Luftfeuchtigkeit
    00:00 +16°C° 0 mm 2 m/S 755 mmHg 63%
    01:00 +16°C° 0 mm 2 m/S 755 mmHg 64%
    02:00 +16°C° 0 mm 2 m/S 755 mmHg 66%
    03:00 +15°C° 0 mm 2 m/S 755 mmHg 67%
    04:00 +15°C° 0 mm 2 m/S 755 mmHg 68%
    05:00 +15°C° 0 mm 2 m/S 754 mmHg 68%
    06:00 +15°C° 0 mm 2 m/S 754 mmHg 69%
    07:00 +17°C° 0 mm 2 m/S 754 mmHg 62%
    08:00 +19°C° 0 mm 2 m/S 754 mmHg 56%
    09:00 +21°C° 0 mm 2 m/S 754 mmHg 49%
    10:00 +23°C° 0 mm 2 m/S 754 mmHg 45%
    11:00 +24°C° 0 mm 2 m/S 754 mmHg 40%
    12:00 +26°C° 0 mm 2 m/S 753 mmHg 36%
    13:00 +26°C° 0 mm 3 m/S 753 mmHg 34%
    14:00 +27°C° 0 mm 3 m/S 753 mmHg 33%
    15:00 +27°C° 0 mm 3 m/S 752 mmHg 31%
    16:00 +27°C° 0 mm 3 m/S 752 mmHg 35%
    17:00 +26°C° 0 mm 3 m/S 752 mmHg 38%
    18:00 +25°C° 0 mm 3 m/S 751 mmHg 42%
    19:00 +22°C° 0 mm 3 m/S 751 mmHg 47%
    20:00 +21°C° 0 mm 3 m/S 751 mmHg 52%
    21:00 +19°C° 0 mm 3 m/S 751 mmHg 58%
    22:00 +18°C° 0 mm 3 m/S 751 mmHg 63%
    23:00 +18°C° 0 mm 3 m/S 751 mmHg 67%

    28 August, Mittwoch

    Zeit Temperatur Niederschläge Wind Luftdruck Luftfeuchtigkeit
    00:00 +17°C° 0 mm 3 m/S 751 mmHg 72%
    01:00 +17°C° 0 mm 3 m/S 751 mmHg 77%
    02:00 +17°C° 0 mm 3 m/S 751 mmHg 82%
    03:00 +16°C° 0 mm 3 m/S 751 mmHg 87%
    04:00 +16°C° 0 mm 3 m/S 751 mmHg 86%
    05:00 +14°C° 0 mm 3 m/S 751 mmHg 85%
    06:00 +14°C° 0 mm 3 m/S 751 mmHg 84%
    07:00 +16°C° 0 mm 3 m/S 752 mmHg 76%
    08:00 +18°C° 0 mm 4 m/S 752 mmHg 67%
    09:00 +19°C° 0 mm 4 m/S 752 mmHg 59%
    10:00 +20°C° 0 mm 5 m/S 752 mmHg 53%
    11:00 +21°C° 0 mm 5 m/S 752 mmHg 48%
    12:00 +22°C° 0 mm 6 m/S 752 mmHg 43%
    13:00 +22°C° 0 mm 6 m/S 752 mmHg 40%
    14:00 +22°C° 0 mm 6 m/S 752 mmHg 38%
    15:00 +23°C° 0 mm 6 m/S 752 mmHg 36%
    16:00 +22°C° 0 mm 5 m/S 752 mmHg 37%
    17:00 +21°C° 0 mm 5 m/S 752 mmHg 38%
    18:00 +20°C° 0 mm 5 m/S 752 mmHg 40%
    19:00 +17°C° 0 mm 5 m/S 752 mmHg 41%
    20:00 +15°C° 0 mm 4 m/S 753 mmHg 43%
    21:00 +13°C° 0 mm 4 m/S 753 mmHg 45%
    22:00 +12°C° 0 mm 4 m/S 754 mmHg 49%
    23:00 +11°C° 0 mm 3 m/S 754 mmHg 53%

    29 August, Donnerstag

    Zeit Temperatur Niederschläge Wind Luftdruck Luftfeuchtigkeit
    00:00 +10°C° 0 mm 3 m/S 754 mmHg 57%
    01:00 +10°C° 0 mm 3 m/S 754 mmHg 61%
    02:00 +9°C° 0 mm 3 m/S 754 mmHg 65%
    03:00 +8°C° 0 mm 2 m/S 754 mmHg 69%
    04:00 +8°C° 0 mm 3 m/S 754 mmHg 71%
    05:00 +7°C° 0 mm 3 m/S 755 mmHg 73%
    06:00 +7°C° 0 mm 3 m/S 755 mmHg 75%
    07:00 +9°C° 0 mm 3 m/S 755 mmHg 69%
    08:00 +11°C° 0 mm 4 m/S 755 mmHg 62%
    09:00 +13°C° 0 mm 4 m/S 755 mmHg 56%
    10:00 +14°C° 0 mm 4 m/S 755 mmHg 52%
    11:00 +15°C° 0 mm 4 m/S 755 mmHg 48%
    12:00 +17°C° 0 mm 4 m/S 755 mmHg 44%
    13:00 +18°C° 0 mm 4 m/S 755 mmHg 42%
    14:00 +19°C° 0 mm 4 m/S 754 mmHg 40%
    15:00 +20°C° 0 mm 4 m/S 754 mmHg 38%
    16:00 +19°C° 0 mm 4 m/S 754 mmHg 40%
    17:00 +18°C° 0 mm 4 m/S 754 mmHg 42%
    18:00 +18°C° 0 mm 4 m/S 754 mmHg 44%
    19:00 +15°C° 0 mm 4 m/S 754 mmHg 49%
    20:00 +13°C° 0 mm 4 m/S 754 mmHg 54%
    21:00 +12°C° 0 mm 4 m/S 755 mmHg 58%
    22:00 +11°C° 0 mm 3 m/S 755 mmHg 60%
    23:00 +10°C° 0 mm 3 m/S 755 mmHg 62%

    30 August, Freitag

    Zeit Temperatur Niederschläge Wind Luftdruck Luftfeuchtigkeit
    00:00 +9°C° 0 mm 3 m/S 755 mmHg 64%
    01:00 +9°C° 0 mm 3 m/S 755 mmHg 67%
    02:00 +8°C° 0 mm 3 m/S 755 mmHg 69%
    03:00 +8°C° 0 mm 3 m/S 755 mmHg 71%
    04:00 +7°C° 0 mm 3 m/S 755 mmHg 72%
    05:00 +7°C° 0 mm 3 m/S 756 mmHg 74%
    06:00 +5°C° 0 mm 3 m/S 756 mmHg 75%
    07:00 +9°C° 0 mm 3 m/S 756 mmHg 68%
    08:00 +11°C° 0 mm 3 m/S 756 mmHg 60%
    09:00 +13°C° 0 mm 4 m/S 756 mmHg 53%
    10:00 +14°C° 0 mm 4 m/S 756 mmHg 48%
    11:00 +17°C° 0 mm 4 m/S 756 mmHg 44%
    12:00 +18°C° 0 mm 4 m/S 756 mmHg 40%
    13:00 +19°C° 0 mm 4 m/S 755 mmHg 39%
    14:00 +19°C° 0 mm 4 m/S 755 mmHg 38%
    15:00 +20°C° 0 mm 4 m/S 754 mmHg 37%
    16:00 +20°C° 0 mm 3 m/S 754 mmHg 39%
    17:00 +19°C° 0 mm 3 m/S 754 mmHg 41%
    18:00 +19°C° 0 mm 3 m/S 754 mmHg 43%
    19:00 +17°C° 0 mm 3 m/S 754 mmHg 46%
    20:00 +14°C° 0 mm 3 m/S 754 mmHg 50%
    21:00 +12°C° 0 mm 3 m/S 754 mmHg 54%
    22:00 +12°C° 0 mm 2 m/S 754 mmHg 55%
    23:00 +12°C° 0 mm 2 m/S 754 mmHg 56%
    Mehr zeigen